LiveATC.Net - Listen to live air traffic control over the Internet!


ICAO: VCBI  IATA: CMB   Airport: Bandaranaike International Airport
City: Colombo
Country: Sri Lanka   Continent: Asia
VCBI METAR Weather: VCBI 170110Z VRB02KT 9000 FEW016 FEW018CB 24/21 Q1013 NOSIG RMK S/SW/W
VCBI Flight Activity (FlightAware)

VCBI Director
Feed Status: UP   Listeners: 0
Listen right in your browser - requires Flash (in browser, requires Flash)
Click here to listen with your own player (launches your MP3 player)
VCBI Director Audio Archives
FacilityFrequency
Colombo Director132.400

VCBI Tower
Feed Status: DOWN
Last heard on: 2018-05-03 11:26:03 (166 days 14 hours 24 minutes ago)
VCBI Tower Audio Archives
FacilityFrequency
Colombo Tower118.700

NOTICE

Unauthorized use prohibited. See LiveATC.net Terms of Service


Find LiveATC Audio Streams


Airport/ARTCC Code

Frequency Search
(e.g., 124.400, 128.75)
Site-wide search
 


Browse LiveATC Feeds
Top 50 LiveATC Feeds
Bad Weather Areas

LiveATC FAQ
Offer a LiveATC Feed
Contact LiveATC.net
Press Inquiries

LiveATC on iPhone
LiveATC on Android

Windows Phone
Windows 8/10

LiveATC Mobile
(Mobile browser)

ATC Audio Archives
Interesting Recordings

LiveATC Forums


Home Page
About LiveATC.net
Make a Donation
Terms of Use
Privacy Policy

Canadian Air Freqs

AIRMETs/SIGMETs

FAA Airport Status
Nat'l Airspace Status
Arrival Demand Charts


Server Software By:
Icecast.org
Liquidsoap